RH
27 26 27 29 31 31 32 32 31 33 37 38 40 40 40 38 35 33 32 32 34 36 37 39 38 39 39 39 41 43 44 44 45 45 45 44 43 43 41 40 39 39
28 26 26 28 29 29 29 29 29 31 35 37 39 39 38 37 34 33 32 31 32 33 35 37 37 38 39 38 39 40 41 42 43 44 45 44 44 44 43 42 40 39
28 27 26 26 27 27 27 27 28 30 34 36 37 37 37 35 33 32 32 31 30 31 32 33 35 37 38 39 39 39 39 40 41 42 44 44 44 44 43 43 42 40
25 26 26 25 25 26 26 26 25 27 31 33 34 35 35 34 33 31 30 31 31 31 30 31 32 35 36 38 39 40 39 39 39 40 41 43 44 44 44 43 43 41
23 24 25 25 24 24 25 25 25 25 27 28 30 32 32 32 32 31 29 29 30 30 30 29 30 32 34 36 37 39 39 39 39 38 38 40 42 43 43 43 42 41
25 23 23 24 24 24 23 23 23 24 24 25 26 28 29 30 30 30 30 29 30 30 29 29 29 30 31 33 35 36 37 37 39 38 38 38 39 40 40 41 41 40
30 27 24 23 23 23 22 21 21 22 23 23 24 25 27 28 27 28 29 29 29 30 30 30 29 29 29 30 32 34 35 37 38 39 38 38 39 39 39 39 39 38
33 31 28 25 23 22 22 21 20 20 20 21 22 23 25 26 25 26 27 27 28 29 30 31 30 29 28 27 28 30 33 35 38 38 38 38 39 39 39 39 39 39
35 34 32 29 26 23 21 21 20 19 18 18 19 20 22 23 24 24 25 25 25 26 27 27 27 26 25 24 25 27 29 32 35 37 38 38 38 38 39 38 39 39
37 35 34 33 30 26 22 21 20 19 18 18 17 18 19 20 22 23 24 24 23 23 22 22 22 22 22 22 23 26 27 29 31 33 35 37 37 38 38 37 37 37
39 36 35 33 32 31 27 23 21 20 19 18 17 17 17 18 19 21 22 22 21 21 20 20 20 20 21 21 22 24 26 27 29 30 32 33 35 35 36 35 35 35
41 38 36 35 34 33 32 29 25 23 21 19 18 17 17 17 18 18 19 20 20 19 19 18 19 19 20 21 23 23 24 24 26 27 29 31 32 33 34 34 33 33
42 40 38 37 36 35 35 33 30 26 23 21 19 19 18 18 17 17 18 18 18 19 18 18 18 18 19 20 22 23 23 23 24 25 25 27 28 30 31 32 32 32
45 43 41 40 38 38 37 35 34 31 28 24 22 20 19 19 18 18 18 17 17 18 18 18 19 18 18 19 21 22 23 24 24 24 23 24 24 25 27 29 30 31
49 47 44 42 40 39 37 36 36 34 32 29 25 22 20 19 19 19 19 18 17 18 18 18 18 18 17 18 19 21 22 24 24 24 24 24 23 24 24 26 27 29
51 49 45 43 40 39 38 38 37 36 35 33 30 26 23 21 20 20 19 18 18 17 17 17 17 17 17 17 18 19 21 22 23 23 24 23 22 23 23 24 25 27
49 49 47 44 41 40 41 40 39 39 37 36 34 31 29 26 24 22 20 19 18 17 17 16 15 15 15 15 16 17 18 20 21 21 22 22 21 21 21 22 22 23
49 49 48 46 44 43 43 43 42 41 39 38 36 35 33 32 30 27 25 23 22 20 19 17 16 15 15 15 15 16 16 18 19 19 20 19 19 18 18 18 19 20
52 49 48 47 46 45 45 45 45 43 40 39 38 37 36 35 32 31 29 28 27 25 23 21 19 17 16 16 16 16 17 18 19 19 19 19 18 18 17 17 18 20
57 52 49 49 48 48 47 47 46 44 42 40 39 39 38 36 34 33 32 31 29 28 27 25 23 20 19 19 18 18 19 20 20 20 20 19 19 19 19 18 19 20
62 58 53 50 50 50 49 48 47 46 44 43 41 41 39 37 37 36 34 33 32 30 29 28 26 24 23 22 20 20 21 22 22 21 21 20 20 20 20 20 20 21
66 62 58 54 52 51 50 49 48 47 46 45 44 43 42 41 39 37 36 35 34 33 32 31 29 27 26 24 22 22 23 24 24 23 22 21 20 20 20 21 21 22
71 66 62 58 55 53 51 50 48 47 46 46 47 46 45 43 42 40 39 37 36 36 35 33 31 29 29 26 25 24 25 25 24 23 22 21 20 20 20 21 21 22
74 70 66 63 60 57 54 51 49 47 46 46 45 44 45 44 44 43 42 39 37 35 34 34 32 32 32 30 28 27 27 26 24 23 23 22 21 21 22 21 22 21
77 73 70 67 65 62 58 56 53 50 48 46 43 41 41 42 43 42 41 39 37 35 34 34 32 32 34 33 31 31 30 28 26 25 23 22 22 23 23 23 23 22
78 76 74 72 68 65 64 62 58 55 52 48 44 42 40 40 41 40 38 38 37 35 34 33 32 32 33 33 34 33 32 30 28 26 24 22 22 22 22 23 23 23